Regional Weather Roundup
Issued by NWS

Home | Current Version | Previous Version | Graphics & Text | Print | Product List | Glossary On
Versions: 1 2 3 4 5 6 7 8 9 10 11 12 13 14 15 16 17 18 19 20 21 22 23 24 25 26 27
000
ASUS45 KBOU 251407
RWRCO

WEATHER ROUNDUP FOR COLORADO
NATIONAL WEATHER SERVICE DENVER/BOULDER CO
800 AM MDT THU MAY 25 2017

NOTE: "FAIR" INDICATES FEW OR NO CLOUDS BELOW 12000 FEET WITH NO
SIGNIFICANT WEATHER AND/OR OBSTRUCTIONS TO VISIBILITY.

COZ001>005-013-030-031-251500-
...NORTHWEST COLORADO...

CITY           SKY/WX    TMP DP  RH WIND       PRES   REMARKS
CRAIG          CLOUDY    50  38  63 VRB6      29.75R
HAYDEN         FAIR      48  39  71 W13       29.74R
MEEKER         CLOUDY    60  36  40 S5        29.68F
RABBIT EARS PA LGT RAIN  37  32  81 SW14G26   29.89S
STEAMBOAT SPGS CLOUDY    51  41  68 W12G18    29.76R
WALDEN           N/A     50  34  53 W14G24    29.79R
$$

COZ006>008-011-251500-
...WEST CENTRAL VALLEYS...

CITY           SKY/WX    TMP DP  RH WIND       PRES   REMARKS
GRAND JUNCTION FAIR      66  39  37 CALM      29.60S
MONTROSE       FAIR      57  34  41 SE9       29.70F
EAGLE          MOSUNNY   54  39  58 E8        29.73F
RIFLE          FAIR      59  39  47 SE7       29.66S
DELTA          FAIR      62  34  34 N6        29.66S
NUCLA          FAIR      64  21  19 S14G22    29.75R
$$

COZ017>023-064>068-251500-
...SOUTHWEST COLORADO...

CITY           SKY/WX    TMP DP  RH WIND       PRES   REMARKS
DURANGO        FAIR      57  35  43 CALM      29.85R
CORTEZ         FAIR      66  23  19 CALM      29.78S
PAGOSA SPRINGS FAIR      56  27  32 E3        29.91R
TELLURIDE      PTSUNNY   55  21  25 SW7       29.95S
WOLF CREEK PAS FAIR      37  23  56 S17       30.14S
$$

COZ009-010-012-014-032>034-037-058>063-251500-
...CENTRAL COLORADO...

CITY           SKY/WX    TMP DP  RH WIND       PRES   REMARKS
ASPEN          FAIR      53  35  50 S9        29.80F
BUENA VISTA    FAIR      60  25  26 W21G26    29.81F
COPPER MTN     LGT SNOW  39  28  65 W16       30.05R
BERTHOUD PASS  MIX PCPN  32  23  69 W32G47    29.98R WCI  17
COTTONWOOD PAS CLOUDY    54  23  30 W8        29.92F
GUNNISON       NOT AVBL
KREMMLING      PTSUNNY   55  43  62 E3        29.78S
LEADVILLE      PTSUNNY   45  27  49 MISG      29.94R
MONARCH PASS   CLOUDY    41  19  42 W29G45    30.13F
SALIDA         FAIR      66  20  17 W12       29.86F
SUNLIGHT       PTSUNNY   43  27  52 SW22G36   29.94F
WILKERSON PASS FAIR      41  25  52 SW14G25   30.00S
$$

COZ069>075-251500-
...SAN LUIS VALLEY/SANGRE DE CRISTO MOUNTAINS...

CITY           SKY/WX    TMP DP  RH WIND       PRES   REMARKS
ALAMOSA        FAIR      61  32  33 SW13      29.83S
DEL NORTE      FAIR      60  28  28 W13       29.87S
LA VETA PASS   FAIR      48  23  37 MISG      30.11R
SAGUACHE       FAIR      52  30  43 CALM      29.85F
$$

COZ035-036-038>040-251500-
...NORTHERN COLORADO FRONT RANGE...

CITY           SKY/WX    TMP DP  RH WIND       PRES   REMARKS
DENVER INTL AP FAIR      67  43  41 S7        29.60S
DMNS CITY PARK   N/A     67  36  31 E10G17    29.59S
AURORA         MOSUNNY   65  40  39 S10       29.62S
FRONT RANGE AP PTSUNNY   66  45  45 S6        29.62S
ERIE MUNI ARPT FAIR      67  39  35 N3        29.57S
BOULDER MUN AP FAIR      66  41  39 N7        29.58R
CENTENNIAL     FAIR      67  39  35 S10       29.63S
BROOMFIELD     MOSUNNY   64  37  36 SE6       29.61F
FORT COLLINS   FAIR      62  46  55 VRB5      29.58F
LONGMONT       FAIR      68  44  42 NE6       29.59S
$$

COZ041-046-047-076>085-087-088-251500-
...PIKES PEAK/PALMER DIVIDE AND SOUTHERN FOOTHILLS...

CITY           SKY/WX    TMP DP  RH WIND       PRES   REMARKS
COLO. SPRINGS  FAIR      67  36  31 W6        29.69R
A. F. ACADEMY  FAIR      65  32  29 N5        29.69S
SCHRIEVER AFB  FAIR      68  30  24 SW7       29.70R
CHEYENNE MTN   FAIR      68  26  20 SE10G17   29.66F
ELLICOTT       FAIR     N/A N/A N/A W6        29.67R
FALCON         FAIR      67  29  23 SW3       29.74R
FORT CARSON    FAIR      70  33  25 S3        29.67S
LIMON          FAIR      63  45  51 VRB6      29.62S
MONUMENT HILL  FAIR      63  32  31 S7        29.74S
CANON CITY     NOT AVBL
WALSENBURG     FAIR      70  37  30 NW8       29.73R
TRINIDAD       FAIR      70  33  25 W15       29.72R
$$

COZ042>045-048>051-090-091-251500-
...NORTHEAST COLORADO...

CITY           SKY/WX    TMP DP  RH WIND       PRES   REMARKS
GREELEY ARPT   FAIR      60  48  64 E3        29.57F
AKRON          FAIR      65  45  48 NW12      29.58R
BURLINGTON     FAIR      64  48  56 S9        29.58R
WRAY           FAIR      66  45  45 N16G22    29.52S
YUMA           FAIR      64  37  36 N13       29.53F
STERLING       FAIR      68  50  52 N7        29.53R
HOLYOKE        NOT AVBL
FORT MORGAN    FAIR      62  45  53 S3        29.58S
$$

COZ086-089-092>099-251500-
...SOUTHEAST COLORADO...

CITY           SKY/WX    TMP DP  RH WIND       PRES   REMARKS
PUEBLO         FAIR      66  42  41 SW7       29.61S
LA JUNTA       FAIR      62  50  64 W6        29.59S
LAMAR          FAIR      56  49  77 W6        29.55S
SPRINGFIELD      N/A     74  39  28 W13G24    29.58R
$$




USA.gov is the U.S. government's official web portal to all federal, state and local government web resources and services.